Location: Bill Sadowski Park
(25.6087°N, 80.3181°W)
Time: 17:16:48
(UTC-05:00)

ISS - Visible Passes

Search period start: 18 February 2018 00:00
Search period end: 28 February 2018 00:00
Orbit: 403 x 407 km, 51.6° (Epoch: 19 February)

Date Brightness Start Highest point End Pass type
(mag) Time Alt. Az. Time Alt. Az. Time Alt. Az.
23 Feb -1.3 05:54:58 10° S 05:57:38 23° SE 06:00:17 10° ENE visible
25 Feb -3.8 05:46:50 15° SW 05:49:25 83° SE 05:52:41 10° NE visible
26 Feb -1.8 04:57:50 28° ESE 04:57:50 28° ESE 05:00:09 10° ENE visible
27 Feb -2.8 05:41:14 28° NW 05:41:18 28° NW 05:44:11 10° NNE visible
